Year,Month,Day,Hour,Minute,Value (Times are PST for temperature in C)
2023,03,28,08,07,9.60
2023,03,28,08,08,9.70
2023,03,28,08,09,9.70
2023,03,28,08,10,9.70
2023,03,28,08,11,9.70
2023,03,28,08,12,9.70
2023,03,28,08,13,9.70
2023,03,28,08,14,9.70
2023,03,28,08,15,9.80
2023,03,28,08,16,9.80
2023,03,28,08,17,9.80
2023,03,28,08,18,9.80
2023,03,28,08,19,9.80
2023,03,28,08,20,9.80
2023,03,28,08,21,9.80
2023,03,28,08,22,9.80
2023,03,28,08,23,9.80
2023,03,28,08,24,9.80
2023,03,28,08,25,9.80
2023,03,28,08,26,9.90
2023,03,28,08,27,9.90
2023,03,28,08,28,9.90
2023,03,28,08,29,9.90
2023,03,28,08,30,9.90
2023,03,28,08,31,9.90
2023,03,28,08,32,9.90
2023,03,28,08,33,10.00
2023,03,28,08,34,10.00
2023,03,28,08,35,10.00
2023,03,28,08,36,10.00
2023,03,28,08,37,10.00
2023,03,28,08,38,10.00
2023,03,28,08,39,10.00
2023,03,28,08,40,10.00
2023,03,28,08,41,10.00
2023,03,28,08,42,10.00
2023,03,28,08,43,10.00
2023,03,28,08,44,10.00
2023,03,28,08,45,10.00
2023,03,28,08,46,10.10
2023,03,28,08,47,10.10
2023,03,28,08,48,10.10
2023,03,28,08,49,10.10
2023,03,28,08,50,10.10
2023,03,28,08,51,10.10
2023,03,28,08,52,10.10
2023,03,28,08,53,10.20
2023,03,28,08,54,10.20
2023,03,28,08,55,10.20
2023,03,28,08,56,10.20
2023,03,28,08,57,10.20
2023,03,28,08,58,10.20
2023,03,28,08,59,10.20
2023,03,28,09,00,10.30
2023,03,28,09,01,10.30
2023,03,28,09,02,10.30
2023,03,28,09,03,10.30
2023,03,28,09,04,10.30
2023,03,28,09,05,10.30
2023,03,28,09,06,10.40
2023,03,28,09,07,10.40
2023,03,28,09,08,10.40
2023,03,28,09,09,10.50
2023,03,28,09,10,10.50
2023,03,28,09,11,10.50
2023,03,28,09,12,10.50
2023,03,28,09,13,10.60
2023,03,28,09,14,10.60
2023,03,28,09,15,10.60
2023,03,28,09,16,10.70
2023,03,28,09,17,10.70
2023,03,28,09,18,10.70
2023,03,28,09,19,10.70
2023,03,28,09,20,10.70
2023,03,28,09,21,10.70
2023,03,28,09,22,10.70
2023,03,28,09,23,10.70
2023,03,28,09,24,10.70
2023,03,28,09,25,10.70
2023,03,28,09,26,10.70
2023,03,28,09,27,10.70
2023,03,28,09,28,10.80
2023,03,28,09,29,10.80
2023,03,28,09,30,10.80
2023,03,28,09,31,10.80
2023,03,28,09,32,10.80
2023,03,28,09,33,10.80
2023,03,28,09,34,10.80
2023,03,28,09,35,10.80
2023,03,28,09,36,10.80
2023,03,28,09,37,10.90
2023,03,28,09,38,10.90
2023,03,28,09,39,10.90
2023,03,28,09,40,10.90
2023,03,28,09,41,11.00
2023,03,28,09,42,11.00
2023,03,28,09,43,11.10
2023,03,28,09,44,11.10
2023,03,28,09,45,11.10
2023,03,28,09,46,11.10
2023,03,28,09,47,11.10
2023,03,28,09,48,11.10
2023,03,28,09,49,11.20
2023,03,28,09,50,11.20
2023,03,28,09,51,11.20
2023,03,28,09,52,11.30
2023,03,28,09,53,11.30
2023,03,28,09,54,11.30
2023,03,28,09,55,11.40
2023,03,28,09,56,11.40
2023,03,28,09,57,11.50
2023,03,28,09,58,11.50
2023,03,28,09,59,11.50
2023,03,28,10,00,11.60
2023,03,28,10,01,11.60
2023,03,28,10,02,11.50
2023,03,28,10,03,11.50
2023,03,28,10,04,11.60
2023,03,28,10,05,11.60
2023,03,28,10,06,11.70
2023,03,28,10,07,11.70
2023,03,28,10,08,11.80
2023,03,28,10,09,11.80
2023,03,28,10,10,11.80
2023,03,28,10,11,11.80
2023,03,28,10,12,11.80
2023,03,28,10,13,11.80
2023,03,28,10,14,11.80
2023,03,28,10,15,11.80
2023,03,28,10,16,11.90
2023,03,28,10,17,12.00
2023,03,28,10,18,12.10
2023,03,28,10,19,12.20
2023,03,28,10,20,12.30
2023,03,28,10,21,12.30
2023,03,28,10,22,12.30
2023,03,28,10,23,12.30
2023,03,28,10,24,12.40
2023,03,28,10,25,12.40
2023,03,28,10,26,12.30
2023,03,28,10,27,12.30
2023,03,28,10,28,12.30
2023,03,28,10,29,12.30
2023,03,28,10,30,12.30
2023,03,28,10,31,12.30
2023,03,28,10,32,12.30
2023,03,28,10,33,12.30
2023,03,28,10,34,12.20
2023,03,28,10,35,12.20
2023,03,28,10,36,12.20
2023,03,28,10,37,12.30
2023,03,28,10,38,12.30
2023,03,28,10,39,12.40
2023,03,28,10,40,12.40
2023,03,28,10,41,12.40
2023,03,28,10,42,12.30
2023,03,28,10,43,12.30
2023,03,28,10,44,12.30
2023,03,28,10,45,12.30
2023,03,28,10,46,12.40
2023,03,28,10,47,12.40
2023,03,28,10,48,12.50
2023,03,28,10,49,12.50
2023,03,28,10,50,12.60
2023,03,28,10,51,12.70
2023,03,28,10,52,12.70
2023,03,28,10,53,12.70
2023,03,28,10,54,12.70
2023,03,28,10,55,12.70
2023,03,28,10,56,12.60
2023,03,28,10,57,12.50
2023,03,28,10,58,12.50
2023,03,28,10,59,12.50
2023,03,28,11,00,12.50
2023,03,28,11,01,12.60
2023,03,28,11,02,12.70
2023,03,28,11,03,12.80
2023,03,28,11,04,12.80
2023,03,28,11,05,12.80
2023,03,28,11,06,12.80
2023,03,28,11,07,12.80
2023,03,28,11,08,12.80
2023,03,28,11,09,12.80
2023,03,28,11,10,12.80
2023,03,28,11,11,12.70
2023,03,28,11,12,12.70
2023,03,28,11,13,12.80
2023,03,28,11,14,12.80
2023,03,28,11,15,12.90
2023,03,28,11,16,12.90
2023,03,28,11,17,12.90
2023,03,28,11,18,13.00
2023,03,28,11,19,13.00
2023,03,28,11,20,13.10
2023,03,28,11,21,13.10
2023,03,28,11,22,13.20
2023,03,28,11,23,13.20
2023,03,28,11,24,13.30
2023,03,28,11,25,13.30
2023,03,28,11,26,13.30
2023,03,28,11,27,13.30
2023,03,28,11,28,13.30
2023,03,28,11,29,13.20
2023,03,28,11,30,13.20
2023,03,28,11,31,13.30
2023,03,28,11,32,13.30
2023,03,28,11,33,13.40
2023,03,28,11,34,13.40
2023,03,28,11,35,13.40
2023,03,28,11,36,13.40
2023,03,28,11,37,13.50
2023,03,28,11,38,13.60
2023,03,28,11,39,13.60
2023,03,28,11,40,13.50
2023,03,28,11,41,13.40
2023,03,28,11,42,13.40
2023,03,28,11,43,13.40
2023,03,28,11,44,13.40
2023,03,28,11,45,13.40
2023,03,28,11,46,13.50
2023,03,28,11,47,13.50
2023,03,28,11,48,13.40
2023,03,28,11,49,13.50
2023,03,28,11,50,13.50
2023,03,28,11,51,13.50
2023,03,28,11,52,13.40
2023,03,28,11,53,13.40
2023,03,28,11,54,13.40
2023,03,28,11,55,13.50
2023,03,28,11,56,13.50
2023,03,28,11,57,13.40
2023,03,28,11,58,13.40
2023,03,28,11,59,13.40
2023,03,28,12,00,13.30
2023,03,28,12,01,13.30
2023,03,28,12,02,13.30
2023,03,28,12,03,13.30
2023,03,28,12,04,13.40
2023,03,28,12,05,13.50
2023,03,28,12,06,13.50
2023,03,28,12,07,13.60
2023,03,28,12,08,13.70
2023,03,28,12,09,13.70
2023,03,28,12,10,13.80
2023,03,28,12,11,13.80
2023,03,28,12,12,13.90
2023,03,28,12,13,13.90
2023,03,28,12,14,13.90
2023,03,28,12,15,14.00
2023,03,28,12,16,13.90
2023,03,28,12,17,13.80
2023,03,28,12,18,13.80
2023,03,28,12,19,13.80
2023,03,28,12,20,13.80
2023,03,28,12,21,13.90
2023,03,28,12,22,14.00
2023,03,28,12,23,14.00
2023,03,28,12,24,14.00
2023,03,28,12,25,13.90
2023,03,28,12,26,13.90
2023,03,28,12,27,13.90
2023,03,28,12,28,13.90
2023,03,28,12,29,14.00
2023,03,28,12,30,14.10
2023,03,28,12,31,14.00
2023,03,28,12,32,14.00
2023,03,28,12,33,13.90
2023,03,28,12,34,13.80
2023,03,28,12,35,13.80
2023,03,28,12,36,13.80
2023,03,28,12,37,13.80
2023,03,28,12,38,13.90
2023,03,28,12,39,13.90
2023,03,28,12,40,13.90
2023,03,28,12,41,14.00
2023,03,28,12,42,14.00
2023,03,28,12,43,14.00
2023,03,28,12,44,14.00
2023,03,28,12,45,13.90
2023,03,28,12,46,13.90
2023,03,28,12,47,14.00
2023,03,28,12,48,14.10
2023,03,28,12,49,14.30
2023,03,28,12,50,14.30
2023,03,28,12,51,14.30
2023,03,28,12,52,14.30
2023,03,28,12,53,14.20
2023,03,28,12,54,14.20
2023,03,28,12,55,14.10
2023,03,28,12,56,14.10
2023,03,28,12,57,14.00
2023,03,28,12,58,13.90
2023,03,28,12,59,14.00
2023,03,28,13,00,14.10
2023,03,28,13,01,14.30
2023,03,28,13,02,14.20
2023,03,28,13,03,14.10
2023,03,28,13,04,14.00
2023,03,28,13,05,13.90
2023,03,28,13,06,13.80
2023,03,28,13,07,13.80
2023,03,28,13,08,13.90
2023,03,28,13,09,13.90
2023,03,28,13,10,14.00
2023,03,28,13,11,14.10
2023,03,28,13,12,14.10
2023,03,28,13,13,14.10
2023,03,28,13,14,14.10
2023,03,28,13,15,14.10
2023,03,28,13,16,14.10
2023,03,28,13,17,14.00
2023,03,28,13,18,14.00
2023,03,28,13,19,14.00
2023,03,28,13,20,14.00
2023,03,28,13,21,14.10
2023,03,28,13,22,14.20
2023,03,28,13,23,14.20
2023,03,28,13,24,14.20
2023,03,28,13,25,14.20
2023,03,28,13,26,14.10
2023,03,28,13,27,14.00
2023,03,28,13,28,14.00
2023,03,28,13,29,13.90
2023,03,28,13,30,13.90
2023,03,28,13,31,13.80
2023,03,28,13,32,13.80
2023,03,28,13,33,13.80
2023,03,28,13,34,13.80
2023,03,28,13,35,13.80
2023,03,28,13,36,13.80
2023,03,28,13,37,13.80
2023,03,28,13,38,13.80
2023,03,28,13,39,13.90
2023,03,28,13,40,14.00
2023,03,28,13,41,14.10
2023,03,28,13,42,14.10
2023,03,28,13,43,14.10
2023,03,28,13,44,14.00
2023,03,28,13,45,14.00
2023,03,28,13,46,14.00
2023,03,28,13,47,14.00
2023,03,28,13,48,14.00
2023,03,28,13,49,14.00
2023,03,28,13,50,14.10
2023,03,28,13,51,14.20
2023,03,28,13,52,14.20
2023,03,28,13,53,14.30
2023,03,28,13,54,14.40
2023,03,28,13,55,14.40
2023,03,28,13,56,14.50
2023,03,28,13,57,14.60
2023,03,28,13,58,14.50
2023,03,28,13,59,14.40
2023,03,28,14,00,14.40
2023,03,28,14,01,14.40
2023,03,28,14,02,14.40
2023,03,28,14,03,14.30
2023,03,28,14,04,14.30
2023,03,28,14,05,14.30
2023,03,28,14,06,14.30
2023,03,28,14,07,14.30
2023,03,28,14,08,14.40
2023,03,28,14,09,14.40
2023,03,28,14,10,14.50
2023,03,28,14,11,14.50
2023,03,28,14,12,14.50
2023,03,28,14,13,14.50
2023,03,28,14,14,14.60
2023,03,28,14,15,14.70
2023,03,28,14,16,14.80
2023,03,28,14,17,14.90
2023,03,28,14,18,15.00
2023,03,28,14,19,15.00
2023,03,28,14,20,15.00
2023,03,28,14,21,14.90
2023,03,28,14,22,14.80
2023,03,28,14,23,14.80
2023,03,28,14,24,14.80
2023,03,28,14,25,14.70
2023,03,28,14,26,14.60
2023,03,28,14,27,14.60
2023,03,28,14,28,14.50
2023,03,28,14,29,14.50
2023,03,28,14,30,14.50
2023,03,28,14,31,14.50
2023,03,28,14,32,14.60
2023,03,28,14,33,14.60
2023,03,28,14,34,14.60
2023,03,28,14,35,14.50
2023,03,28,14,36,14.50
2023,03,28,14,37,14.40
2023,03,28,14,38,14.30
2023,03,28,14,39,14.30
2023,03,28,14,40,14.30
2023,03,28,14,41,14.30
2023,03,28,14,42,14.40
2023,03,28,14,43,14.40
2023,03,28,14,44,14.50
2023,03,28,14,45,14.60
2023,03,28,14,46,14.60
2023,03,28,14,47,14.70
2023,03,28,14,48,14.70
2023,03,28,14,49,14.70
2023,03,28,14,50,14.70
2023,03,28,14,51,14.70
2023,03,28,14,52,14.80
2023,03,28,14,53,14.80
2023,03,28,14,54,14.90
2023,03,28,14,55,14.90
2023,03,28,14,56,15.00
2023,03,28,14,57,15.10
2023,03,28,14,58,15.20
2023,03,28,14,59,15.20
2023,03,28,15,00,15.20
2023,03,28,15,01,15.30
2023,03,28,15,02,15.30
2023,03,28,15,03,15.40
2023,03,28,15,04,15.40
2023,03,28,15,05,15.40
2023,03,28,15,06,15.40
2023,03,28,15,07,15.30
2023,03,28,15,08,15.20
2023,03,28,15,09,15.20
2023,03,28,15,10,15.30
2023,03,28,15,11,15.20
2023,03,28,15,12,15.10
2023,03,28,15,13,15.10
2023,03,28,15,14,15.00
2023,03,28,15,15,14.90
2023,03,28,15,16,14.90
2023,03,28,15,17,14.80
2023,03,28,15,18,14.80
2023,03,28,15,19,14.90
2023,03,28,15,20,15.00
2023,03,28,15,21,15.00
2023,03,28,15,22,15.10
2023,03,28,15,23,15.10
2023,03,28,15,24,15.00
2023,03,28,15,25,15.00
2023,03,28,15,26,14.90
2023,03,28,15,27,14.90
2023,03,28,15,28,14.90
2023,03,28,15,29,15.00
2023,03,28,15,30,15.10
2023,03,28,15,31,15.20
2023,03,28,15,32,15.20
2023,03,28,15,33,15.20
2023,03,28,15,34,15.20
2023,03,28,15,35,15.20
2023,03,28,15,36,15.20
2023,03,28,15,37,15.20
2023,03,28,15,38,15.20
2023,03,28,15,39,15.20
2023,03,28,15,40,15.30
2023,03,28,15,41,15.40
2023,03,28,15,42,15.50
2023,03,28,15,43,15.50
2023,03,28,15,44,15.60
2023,03,28,15,45,15.70
2023,03,28,15,46,15.70
2023,03,28,15,47,15.80
2023,03,28,15,48,15.80
2023,03,28,15,49,15.80
2023,03,28,15,50,15.80
2023,03,28,15,51,15.80
2023,03,28,15,52,15.90
2023,03,28,15,53,15.80
2023,03,28,15,54,15.90
2023,03,28,15,55,16.00
2023,03,28,15,56,16.10
2023,03,28,15,57,16.10
2023,03,28,15,58,16.10
2023,03,28,15,59,16.00
2023,03,28,16,00,15.90
2023,03,28,16,01,15.90
2023,03,28,16,02,16.00
2023,03,28,16,03,16.10
2023,03,28,16,04,16.10
2023,03,28,16,05,16.10
2023,03,28,16,06,16.20
2023,03,28,16,07,16.20
2023,03,28,16,08,16.20
2023,03,28,16,09,16.20
2023,03,28,16,10,16.20
2023,03,28,16,11,16.20
2023,03,28,16,12,16.20
2023,03,28,16,13,16.20
2023,03,28,16,14,16.30
2023,03,28,16,15,16.30
2023,03,28,16,16,16.30
2023,03,28,16,17,16.30
2023,03,28,16,18,16.30
2023,03,28,16,19,16.20
2023,03,28,16,20,16.10
2023,03,28,16,21,16.00
2023,03,28,16,22,16.00
2023,03,28,16,23,16.00
2023,03,28,16,24,16.10
2023,03,28,16,25,16.20
2023,03,28,16,26,16.20
2023,03,28,16,27,16.30
2023,03,28,16,28,16.30
2023,03,28,16,29,16.30
2023,03,28,16,30,16.30
2023,03,28,16,31,16.20
2023,03,28,16,32,16.10
2023,03,28,16,33,16.00
2023,03,28,16,34,15.90
2023,03,28,16,35,15.90
2023,03,28,16,36,15.90
2023,03,28,16,37,15.90
2023,03,28,16,38,15.90
2023,03,28,16,39,15.90
2023,03,28,16,40,15.90
2023,03,28,16,41,15.90
2023,03,28,16,42,15.90
2023,03,28,16,43,15.80
2023,03,28,16,44,15.90
2023,03,28,16,45,15.90
2023,03,28,16,46,15.80
2023,03,28,16,47,15.80
2023,03,28,16,48,15.80
2023,03,28,16,49,15.80
2023,03,28,16,50,15.80
2023,03,28,16,51,15.80
2023,03,28,16,52,15.90
2023,03,28,16,53,15.90
2023,03,28,16,54,15.90
2023,03,28,16,55,15.80
2023,03,28,16,56,15.80
2023,03,28,16,57,15.80
2023,03,28,16,58,15.80
2023,03,28,16,59,15.80
2023,03,28,17,00,15.80
2023,03,28,17,01,15.80
2023,03,28,17,02,15.80
2023,03,28,17,03,15.80
2023,03,28,17,04,15.80
2023,03,28,17,05,15.70
2023,03,28,17,06,15.70
2023,03,28,17,07,15.70
2023,03,28,17,08,15.70
2023,03,28,17,09,15.80
2023,03,28,17,10,15.80
2023,03,28,17,11,15.90
2023,03,28,17,12,15.90
2023,03,28,17,13,15.90
2023,03,28,17,14,15.90
2023,03,28,17,15,15.90
2023,03,28,17,16,15.90
2023,03,28,17,17,15.90
2023,03,28,17,18,15.90
2023,03,28,17,19,15.90
2023,03,28,17,20,15.80
2023,03,28,17,21,15.90
2023,03,28,17,22,15.80
2023,03,28,17,23,15.80
2023,03,28,17,24,15.80
2023,03,28,17,25,15.80
2023,03,28,17,26,15.80
2023,03,28,17,27,15.80
2023,03,28,17,28,15.90
2023,03,28,17,29,15.80
2023,03,28,17,30,15.80
2023,03,28,17,31,15.60
2023,03,28,17,32,15.60
2023,03,28,17,33,15.60
2023,03,28,17,34,15.50
2023,03,28,17,35,15.50
2023,03,28,17,36,15.50
2023,03,28,17,37,15.50
2023,03,28,17,38,15.40
2023,03,28,17,39,15.40
2023,03,28,17,40,15.40
2023,03,28,17,41,15.40
2023,03,28,17,42,15.40
2023,03,28,17,43,15.30
2023,03,28,17,44,15.20
2023,03,28,17,45,15.20
2023,03,28,17,46,15.10
2023,03,28,17,47,15.20
2023,03,28,17,48,15.20
2023,03,28,17,49,15.20
2023,03,28,17,50,15.20
2023,03,28,17,51,15.20
2023,03,28,17,52,15.10
2023,03,28,17,53,15.10
2023,03,28,17,54,15.10
2023,03,28,17,55,15.10
2023,03,28,17,56,15.00
2023,03,28,17,57,15.00
2023,03,28,17,58,14.90
2023,03,28,17,59,14.90
2023,03,28,18,00,14.90
2023,03,28,18,01,14.90
2023,03,28,18,02,14.80
2023,03,28,18,03,14.80
2023,03,28,18,04,14.80
2023,03,28,18,05,14.80
2023,03,28,18,06,14.80
2023,03,28,18,07,14.80
2023,03,28,18,08,14.80
2023,03,28,18,09,14.80
2023,03,28,18,10,14.80
2023,03,28,18,11,14.80
2023,03,28,18,12,14.70
2023,03,28,18,13,14.70
2023,03,28,18,14,14.70
2023,03,28,18,15,14.70
2023,03,28,18,16,14.70
2023,03,28,18,17,14.70
2023,03,28,18,18,14.60
2023,03,28,18,19,14.60
2023,03,28,18,20,14.60
2023,03,28,18,21,14.60
2023,03,28,18,22,14.50
2023,03,28,18,23,14.50
2023,03,28,18,24,14.50
2023,03,28,18,25,14.50
2023,03,28,18,26,14.40
2023,03,28,18,27,14.50
2023,03,28,18,28,14.50
2023,03,28,18,29,14.50
2023,03,28,18,30,14.50
2023,03,28,18,31,14.50
2023,03,28,18,32,14.50
2023,03,28,18,33,14.50
2023,03,28,18,34,14.50
2023,03,28,18,35,14.50
2023,03,28,18,36,14.40
2023,03,28,18,37,14.40
2023,03,28,18,38,14.40
2023,03,28,18,39,14.40
2023,03,28,18,40,14.40
2023,03,28,18,41,14.30
2023,03,28,18,42,14.30
2023,03,28,18,43,14.30
2023,03,28,18,44,14.30
2023,03,28,18,45,14.30
2023,03,28,18,46,14.30
2023,03,28,18,47,14.30
2023,03,28,18,48,14.20
2023,03,28,18,49,14.20
2023,03,28,18,50,14.20
2023,03,28,18,51,14.20
2023,03,28,18,52,14.20
2023,03,28,18,53,14.20
2023,03,28,18,54,14.20
2023,03,28,18,55,14.20
2023,03,28,18,56,14.20
2023,03,28,18,57,14.20
2023,03,28,18,58,14.20
2023,03,28,18,59,14.10
2023,03,28,19,00,14.10
2023,03,28,19,01,14.10
2023,03,28,19,02,14.10
2023,03,28,19,03,14.10
2023,03,28,19,04,14.10
2023,03,28,19,05,14.10
2023,03,28,19,06,14.10
2023,03,28,19,07,14.10
2023,03,28,19,08,14.00
2023,03,28,19,09,14.00
2023,03,28,19,10,14.00
2023,03,28,19,11,14.00
2023,03,28,19,12,14.00
2023,03,28,19,13,13.90
2023,03,28,19,14,13.90
2023,03,28,19,15,13.90
2023,03,28,19,16,13.90
2023,03,28,19,17,13.80
2023,03,28,19,18,13.80
2023,03,28,19,19,13.80
2023,03,28,19,20,13.80
2023,03,28,19,21,13.80
2023,03,28,19,22,13.70
2023,03,28,19,23,13.70
2023,03,28,19,24,13.70
2023,03,28,19,25,13.70
2023,03,28,19,26,13.70
2023,03,28,19,27,13.40
2023,03,28,19,28,13.10
2023,03,28,19,29,13.10
2023,03,28,19,30,13.10
2023,03,28,19,31,13.10
2023,03,28,19,32,13.10
2023,03,28,19,33,13.10
2023,03,28,19,34,13.10
2023,03,28,19,35,13.10
2023,03,28,19,36,13.10
2023,03,28,19,37,13.10
2023,03,28,19,38,13.10
2023,03,28,19,39,13.10
